Simultaneous Nadir Overpasses (SNOs) Predictions

Prediction of SNOs between NOAA-21 and METOP-C Satellite Orbit:

Table of predicted SNOs for the next 14.0 days since TLE Epoch: 12/14/2024
Index Date (NOAA-21) Time (NOAA-21) Lat,Lon (NOAA-21) SZA (NOAA-21 ) Date (METOP-C) Time (METOP-C) Lat,Lon (METOP-C) SZA (METOP-C ) Distance(km) Time Diff (sec)
1 12/25/2024 18:12:47 73.44,-102.60 96.92 12/25/2024 18:13:54 73.38,-100.00 96.76 82.72 67
2 12/25/2024 19:03:29 -73.32, 64.99 83.22 12/25/2024 19:04:38 -73.27, 67.08 83.35 66.85 69
3 12/25/2024 19:54:11 73.15,-127.33 96.60 12/25/2024 19:55:21 73.11,-125.95 96.50 44.77 70
4 12/25/2024 20:44:53 -73.02, 40.26 83.54 12/25/2024 20:46:05 -73.00, 41.14 83.61 29.03 72
5 12/25/2024 21:35:35 72.86,-152.08 96.29 12/25/2024 21:36:48 72.83,-151.87 96.24 7.09 73
6 12/25/2024 22:26:18 -72.78, 15.39 83.80 12/25/2024 22:27:31 -72.78, 15.33 83.82 2.14 73
7 12/25/2024 23:17:04 72.82,-177.37 96.24 12/25/2024 23:18:10 72.81,-177.26 96.22 3.48 66
8 12/26/2024 00:07:48 -72.79, -10.00 83.79 12/26/2024 00:08:52 -72.80, -9.95 83.79 2.08 64
9 12/26/2024 00:58:33 72.78, 157.34 96.20 12/26/2024 00:59:32 72.79, 157.35 96.20 1.31 59
10 12/26/2024 01:49:18 -72.80, -35.40 83.78 12/26/2024 01:50:14 -72.78, -35.34 83.82 3.32 56
11 12/26/2024 02:40:03 72.79, 131.95 96.20 12/26/2024 02:40:54 72.76, 131.96 96.17 2.48 51
12 12/26/2024 03:30:47 -72.76, -60.69 83.83 12/26/2024 03:31:36 -72.76, -60.72 83.84 1.32 49
13 12/26/2024 04:21:32 72.75, 106.66 96.16 12/26/2024 04:22:16 72.74, 106.58 96.15 2.72 44
14 12/26/2024 05:12:17 -72.77, -86.09 83.82 12/26/2024 05:12:57 -72.79, -86.01 83.82 2.90 40
15 12/26/2024 06:03:02 72.76, 81.26 96.17 12/26/2024 06:03:37 72.77, 81.29 96.17 1.79 35
16 12/26/2024 06:53:46 -72.73,-111.38 83.86 12/26/2024 06:54:19 -72.76,-111.39 83.84 3.18 33
17 12/26/2024 07:44:32 72.77, 55.87 96.18 12/26/2024 07:44:59 72.75, 55.91 96.15 2.68 27
18 12/26/2024 08:35:16 -72.74,-136.77 83.85 12/26/2024 08:35:41 -72.74,-136.78 83.86 0.63 25
19 12/26/2024 09:26:01 72.73, 30.57 96.13 12/26/2024 09:26:21 72.72, 30.52 96.13 1.84 20
20 12/26/2024 10:16:44 -72.70,-162.06 83.90 12/26/2024 10:17:02 -72.72,-162.17 83.89 3.66 18
21 12/26/2024 11:07:30 72.74, 5.18 96.14 12/26/2024 11:07:41 72.75, 5.24 96.15 2.48 11
22 12/26/2024 11:58:14 -72.72, 172.54 83.89 12/26/2024 11:58:23 -72.74, 172.55 83.86 3.26 9
23 12/26/2024 12:49:00 72.75, -20.22 96.15 12/26/2024 12:49:03 72.73, -20.15 96.13 3.14 3
24 12/26/2024 13:39:44 -72.73, 147.14 83.88 12/26/2024 13:39:45 -72.72, 147.16 83.89 0.79 1
25 12/26/2024 14:30:29 72.71, -45.51 96.10 12/26/2024 14:30:25 72.71, -45.54 96.10 0.98 4
26 12/26/2024 15:21:13 -72.69, 121.85 83.93 12/26/2024 15:21:07 -72.70, 121.78 83.91 2.91 6
27 12/26/2024 16:11:59 72.72, -70.90 96.11 12/26/2024 16:11:46 72.73, -70.82 96.13 3.26 13
28 12/26/2024 17:02:43 -72.70, 96.46 83.92 12/26/2024 17:02:29 -72.68, 96.39 83.93 3.22 14
29 12/26/2024 17:53:28 72.68, -96.20 96.07 12/26/2024 17:53:08 72.71, -96.21 96.10 3.56 20
30 12/26/2024 18:44:13 -72.71, 71.06 83.91 12/26/2024 18:43:50 -72.70, 71.11 83.91 1.55 23
31 12/26/2024 19:34:58 72.69,-121.59 96.07 12/26/2024 19:34:30 72.69,-121.59 96.08 0.21 28
32 12/26/2024 20:25:42 -72.67, 45.77 83.96 12/26/2024 20:25:12 -72.68, 45.72 83.94 2.23 30
33 12/26/2024 21:16:27 72.65,-146.88 96.03 12/26/2024 21:15:52 72.66,-146.98 96.05 3.64 35
34 12/26/2024 22:07:12 -72.68, 20.37 83.95 12/26/2024 22:06:34 -72.66, 20.33 83.96 2.63 38
35 12/26/2024 22:57:57 72.66,-172.28 96.04 12/26/2024 22:57:14 72.64,-172.37 96.03 3.57 43
36 12/26/2024 23:48:42 -72.69, -5.02 83.94 12/26/2024 23:47:55 -72.68, -4.95 83.94 2.40 47
37 12/27/2024 00:39:27 72.67, 162.33 96.05 12/27/2024 00:38:35 72.67, 162.35 96.05 0.84 52
38 12/27/2024 01:30:11 -72.65, -30.32 83.98 12/27/2024 01:29:17 -72.66, -30.34 83.96 1.73 54
39 12/27/2024 02:20:56 72.63, 137.03 96.00 12/27/2024 02:19:57 72.65, 136.96 96.03 2.92 59
40 12/27/2024 03:11:41 -72.66, -55.71 83.98 12/27/2024 03:10:39 -72.64, -55.72 83.98 2.25 62
41 12/27/2024 04:02:26 72.64, 111.64 96.01 12/27/2024 04:01:19 72.62, 111.58 96.00 2.85 67
42 12/27/2024 04:53:11 -72.67, -81.11 83.97 12/27/2024 04:52:00 -72.67, -81.01 83.96 3.28 71
43 12/27/2024 05:43:55 72.60, 86.35 95.96 12/27/2024 05:42:41 72.60, 86.19 95.98 5.18 74
44 12/27/2024 06:34:38 -72.53,-106.19 84.12 12/27/2024 06:33:24 -72.54,-106.60 84.08 13.70 74
45 12/27/2024 07:25:19 72.30, 61.56 95.64 12/27/2024 07:24:08 72.32, 60.29 95.72 42.85 71
46 12/27/2024 08:16:02 -72.23,-130.98 84.44 12/27/2024 08:14:52 -72.21,-132.59 84.38 54.60 70
47 12/27/2024 09:06:43 72.01, 36.76 95.32 12/27/2024 09:05:36 71.99, 34.32 95.42 83.95 67
48 12/27/2024 09:57:26 -71.94,-155.79 84.76 12/27/2024 09:56:19 -71.93,-158.46 84.64 92.06 67



Historial Predications of SNOs between NOAA-21 and METOP-C
